Regional Weather Roundup
Issued by NWS

Home | Current Version | Previous Version | Graphics & Text | Print | Product List | Glossary On
Versions: 1 2 3 4 5 6 7 8 9 10 11 12 13 14 15 16 17 18 19 20 21 22 23 24 25 26 27 28 29 30 31 32 33 34 35 36 37 38 39 40 41 42 43 44 45 46 47 48 49 50
000
ASUS43 KDMX 200101
RWRIA

WEATHER ROUNDUP FOR IOWA
NATIONAL WEATHER SERVICE DES MOINES IA
800 PM CDT THU OCT 19 2017

NOTE: "FAIR" INDICATES FEW OR NO CLOUDS BELOW 12,000 FEET WITH NO
SIGNIFICANT WEATHER AND/OR OBSTRUCTIONS TO VISIBILITY.

* - THESE STATIONS ARE NOT NWS STATIONS...THUS NOT UNDER NWS
QUALITY CONTROL.  THEY ALSO DO NOT REPORT WEATHER SUCH
AS PRECIPITATION OR FOG.

IAZ001>003-012>014-020>022-031>034-043>046-200200-
   NORTHWEST IOWA

CITY           SKY/WX    TMP DP  RH WIND       PRES   REMARKS
CARROLL *      CLEAR     77  73  88 S5        29.99S
CHEROKEE *     CLEAR     58  51  77 S6        29.96S
DENISON *      CLEAR     66  52  59 SE9       29.99S
LE MARS *      CLEAR     64  52  63 S8        29.93S
ORANGE CITY *  CLEAR     64  52  63 S6        29.94S
SHELDON *      CLEAR     61  50  67 S8        29.92S
SIOUX CITY     CLEAR     63  52  67 SE9       29.94R
SPENCER        CLEAR     59  48  67 SE9       29.96S
STORM LAKE *   CLEAR     64  52  63 S10       29.97S
$$

IAZ055>058-069>071-079>083-090>094-200200-
   SOUTHWEST IOWA

CITY           SKY/WX    TMP DP  RH WIND       PRES   REMARKS
ATLANTIC *     CLEAR     64  52  63 S7        30.00S
AUDUBON *      CLEAR     61  54  77 CALM      30.01S
CLARINDA *       N/A     63  52  67 SW3       30.04S
COUNCIL BLFS * CLEAR     68  54  60 S10       29.98S
CRESTON *      CLEAR     64  52  63 S9        30.05R
HARLAN  *      CLEAR     63  52  67 S7        30.02S
LAMONI         CLEAR     66  52  60 S8        30.05S
RED OAK *      CLEAR     64  52  63 S6        30.01S
SHENANDOAH *   CLEAR     64  52  63 SE7       30.01S
$$

IAZ047>049-059>061-072>074-084-200200-
   CENTRAL IOWA

CITY           SKY/WX    TMP DP  RH WIND       PRES   REMARKS
AMES           CLEAR     60  54  80 S7        30.02S
ANKENY *       CLEAR     63  55  77 CALM      30.04S
BOONE *        CLEAR     61  54  77 S7        30.02S
CHARITON *     CLEAR     63  54  72 SE7       30.05S
DES MOINES     PTCLDY    66  54  65 SE8       30.03S
KNOXVILLE *    CLEAR     64  54  68 SE7       30.04S
MARSHALLTOWN   CLEAR     63  53  70 SE7       30.04R
NEWTON *       CLEAR     61  54  77 S7        30.05S
PELLA *        CLEAR     65  54  67 SE6       30.07R
PERRY *          N/A     60  51  72 SE7       30.02S
$$

IAZ004>006-015-016-023>025-035-036-200200-
   NORTH CENTRAL IOWA

CITY           SKY/WX    TMP DP  RH WIND       PRES   REMARKS
ALGONA *       CLEAR     64  48  55 S12G18    29.98F
CLARION *      CLEAR     61  50  67 SE12      30.01S
ESTHERVILLE    CLEAR     60  47  61 S9        29.96S
FORT DODGE *   CLEAR     66  52  60 SE6       30.00S
MASON CITY     CLEAR     57  42  57 S8        30.02S
FOREST CITY *    N/A     55  45  67 S9        30.00F
WEBSTER CITY * CLEAR     63  52  67 SE8       29.99F
IOWA FALLS *     N/A     61  51  69 SE9       30.04S
$$

IAZ007>011-017>019-026>030-037>042-050>054-066-200200-
   NORTHEAST IOWA

CITY           SKY/WX    TMP DP  RH WIND       PRES   REMARKS
CEDAR RAPIDS   CLEAR     61  50  67 SE5       30.07S
CHARLES CITY * CLEAR     61  39  44 SE12      30.03F
CLINTON *      CLEAR     59  43  55 SE9       30.12R
DECORAH *      CLEAR     59  36  41 S9        30.04F
DUBUQUE        CLOUDY    58  37  45 SE8       30.10F
MONTICELLO *   CLOUDY    59  41  51 SE8       30.09S
OELWEIN *      CLEAR     57  43  58 SE10      30.07S
WATERLOO       CLEAR     62  42  47 SE9       30.04S
$$

IAZ064-065-067-068-078-200200-
   EAST CENTRAL IOWA

CITY           SKY/WX    TMP DP  RH WIND       PRES   REMARKS
DAVENPORT      CLEAR     61  50  67 SE8       30.13R
IOWA CITY      CLEAR     60  51  72 SE3       30.09S
MUSCATINE *    CLEAR     59  52  77 CALM      30.09S
QUAD CITIES    CLEAR     59  50  72 SE6       30.10
$$

IAZ062-063-075>077-085>089-095>099-200200-
   SOUTHEAST IOWA

CITY           SKY/WX    TMP DP  RH WIND       PRES   REMARKS
BURLINGTON     CLEAR     63  54  72 S6        30.10S
FAIRFIELD *    CLEAR     59  52  77 SE7       30.08S
FORT MADISON * CLEAR     66  54  63 S6        30.11S
KEOKUK *       CLEAR     68  52  56 SE7       30.10S
OSKALOOSA *      N/A     60  53  78 SE9       30.07S
OTTUMWA        CLEAR     62  53  72 S7        30.07R
WASHINGTON *   CLEAR     61  52  72 S8        30.09S HAZE
$$

ABBREVIATIONS USED IN REMARKS
   TC - TEMPERATURES IN CELSIUS
  WCI - WIND CHILL INDEX
   HX - HEAT INDEX
  VSB - VISIBILITY
$$





USA.gov is the U.S. government's official web portal to all federal, state and local government web resources and services.